Weather History for Nenana, AK

Change the Weather History Date:

Friday, November 23, 2012

  Actual Average Record
Temperature  
Mean Temperature 15 °F -  
Max Temperature 46 °F 7 °F 53 °F (2002)
Min Temperature -16 °F -10 °F -29 °F (2006)
Degree Days  
Heating Degree Days 50    
Moisture  
Dew Point -8 °F    
Average Humidity 69    
Maximum Humidity 81    
Minimum Humidity 55    
Precipitation  
Precipitation 0.28 in - - ()
Sea Level Pressure  
Sea Level Pressure 29.98 in    
Wind  
Wind Speed 4 mph (NE)    
Max Wind Speed 21 mph    
Max Gust Speed -    
Visibility 10 miles    
Events Rain    
Averages and records for this station are not official NWS values.
T = Trace of Precipitation, MM = Missing Value Source: NWS Daily Summary

Daily Weather History Graph

Daily Weather History Graph

Search for Another Location

Airport:

Trip Planner

Search our weather history database for the weather conditions in past years. The results will help you decide how hot, cold, wet, or windy it might be!

Date:

Astronomy

Nov. 23, 2012 Rise Set
Actual Time 9:57 AM AKST 3:27 PM AKST
Civil Twilight 8:50 AM AKST 4:35 PM AKST
Nautical Twilight 7:45 AM AKST 5:39 PM AKST
Astronomical Twilight 6:47 AM AKST 6:37 PM AKST
Moon 2:12 PM AKST (11/23) 3:52 AM AKST (11/23)
Length of Visible Light 7h 44m
Length of Day
5h 29m
Waxing Gibbous, 81% of the Moon is Illuminated
Nov 23
Waxing Gibbous
Nov 28
Full
Dec 6
Last Quarter
Dec 12
New
Dec 19
First Quarter

Hourly Weather History & Observations

Time (AKST) Temp. Windchill Dew Point Humidity Pressure Visibility Wind Dir Wind Speed Gust Speed Precip Events Conditions
12:53 AM -8.0 °F - -14.1 °F 75% 30.00 in 10.0 mi Calm Calm - N/A   Clear
1:53 AM -8.0 °F -19.2 °F -13.0 °F 79% 29.99 in 10.0 mi SSW 4.6 mph - N/A   Clear
3:53 AM -14.1 °F - -20.0 °F 75% 29.99 in 10.0 mi Calm Calm - N/A   Clear
4:53 AM -16.1 °F - -22.0 °F 74% 29.98 in 10.0 mi Calm Calm - N/A   Clear
5:53 AM -15.0 °F - -20.9 °F 75% 29.98 in 10.0 mi Calm Calm - N/A   Clear
6:53 AM -14.1 °F - -20.0 °F 75% 29.98 in 10.0 mi Calm Calm - N/A   Clear
7:53 AM -14.1 °F - -20.0 °F 75% 29.99 in 10.0 mi Calm Calm - N/A   Clear
8:53 AM -16.1 °F - -23.1 °F 71% 29.99 in 10.0 mi Calm Calm - N/A   Clear
9:53 AM -15.0 °F - -20.9 °F 75% 30.00 in 10.0 mi Calm Calm - N/A   Clear
10:53 AM -11.0 °F - -16.1 °F 78% 30.01 in 10.0 mi Calm Calm - N/A   Clear
11:53 AM -8.0 °F - -14.1 °F 75% 30.02 in 10.0 mi Calm Calm - N/A   Clear
12:53 PM 1.0 °F - -8.0 °F 66% 30.02 in 10.0 mi Calm Calm - N/A   Clear
1:53 PM 1.0 °F - -7.1 °F 69% 30.03 in 10.0 mi Calm Calm - N/A   Clear
2:53 PM -2.9 °F - -9.9 °F 72% 30.03 in 10.0 mi Calm Calm - N/A   Clear
3:53 PM -8.0 °F -16.9 °F -15.0 °F 71% 30.05 in 10.0 mi NNW 3.5 mph - N/A   Clear
4:53 PM -9.9 °F -19.2 °F -16.1 °F 74% 30.05 in 10.0 mi NNW 3.5 mph - N/A   Clear
5:53 PM 1.9 °F -9.2 °F -8.0 °F 63% 30.05 in 10.0 mi NE 5.8 mph - N/A   Clear
6:53 PM 6.1 °F -5.6 °F -7.1 °F 55% 30.06 in 10.0 mi NE 6.9 mph - N/A   Clear
7:53 PM 5.0 °F -6.9 °F -7.1 °F 58% 30.07 in 10.0 mi NE 6.9 mph - N/A   Clear
8:53 PM 6.1 °F -5.6 °F -7.1 °F 55% 30.08 in 10.0 mi NE 6.9 mph - N/A   Clear
9:53 PM 5.0 °F -5.6 °F -8.0 °F 55% 30.09 in 10.0 mi NE 5.8 mph - N/A   Clear
10:53 PM 5.0 °F -8.1 °F -8.0 °F 55% 30.09 in 10.0 mi ENE 8.1 mph - N/A   Clear
11:53 PM 3.9 °F -6.9 °F -9.0 °F 55% 30.11 in 10.0 mi ENE 5.8 mph - N/A   Clear